EW5962 Weather Reports


time (UTC)temp
F
wind
direction
speed
knots
gust
knots
rain 1hr
in
rain 24hr
in
rain mn
in
humidity
%
barometer
mb
20260503015510 46 221 0.0 0.0 0.00 0.00 0.00 84 1013.9
20260503015103 46 221 0.0 0.0 0.00 0.00 0.00 84 1013.7
20260503014507 46 221 0.0 0.0 0.00 0.00 0.00 83 1013.5
20260503014010 46 221 0.0 0.0 0.00 0.00 0.00 83 1013.4
20260503013603 47 221 0.0 0.0 0.00 0.00 0.00 82 1013.3
20260503013003 47 221 0.0 0.0 0.00 0.00 0.00 81 1013.1
20260503012511 48 221 0.0 0.0 0.00 0.00 0.00 80 1013.1
20260503012104 48 221 0.0 0.0 0.00 0.00 0.00 79 1013.0
20260503011506 48 221 0.0 0.9 0.00 0.00 0.00 79 1012.9
20260503011009 49 221 0.0 0.0 0.00 0.00 0.00 77 1012.9
20260503010603 49 221 0.0 0.0 0.00 0.00 0.00 76 1012.7
20260503010004 50 221 0.0 0.0 0.00 0.00 0.00 76 1012.6
20260503005510 50 221 0.0 0.0 0.00 0.00 0.00 75 1012.5
20260503005105 50 221 0.0 0.0 0.00 0.00 0.00 73 1012.5
20260503004507 51 221 0.0 0.0 0.00 0.00 0.00 73 1012.4
20260503004009 51 221 0.0 0.0 0.00 0.00 0.00 72 1012.3
20260503003603 52 221 0.0 0.0 0.00 0.00 0.00 71 1012.2
20260503003002 52 221 0.0 0.0 0.00 0.00 0.00 68 1012.1
20260503002516 53 221 0.0 0.0 0.00 0.00 0.00 68 1012.1
20260503002104 53 221 0.0 0.0 0.00 0.00 0.00 68 1012.1
20260503001505 54 221 0.0 0.0 0.00 0.00 0.00 68 1011.9
20260503001009 54 221 0.0 0.0 0.00 0.00 0.00 65 1011.9
20260503000604 54 221 0.0 0.0 0.00 0.00 0.00 64 1011.9
20260503000003 54 221 0.0 0.0 0.00 0.00 0.00 64 1011.8
20260502235509 55 221 0.0 0.0 0.00 0.00 0.00 63 1011.9
20260502235103 55 221 0.0 0.0 0.00 0.00 0.00 63 1011.8
20260502234504 55 221 0.0 0.0 0.00 0.00 0.00 63 1011.6
20260502234010 55 221 0.0 0.0 0.00 0.00 0.00 60 1011.5
20260502233603 55 221 0.0 0.0 0.00 0.00 0.00 62 1011.5
20260502233004 55 221 0.0 0.0 0.00 0.00 0.00 63 1011.3
20260502232509 56 221 0.0 0.0 0.00 0.00 0.00 64 1011.3
20260502232103 56 221 0.0 0.0 0.00 0.00 0.00 61 1011.2
20260502231503 56 221 0.0 0.0 0.00 0.00 0.00 59 1011.1
20260502231010 56 221 0.0 0.0 0.00 0.00 0.00 58 1011.0
20260502230604 57 221 0.0 0.0 0.00 0.00 0.00 56 1010.9
20260502230004 57 221 0.0 0.0 0.00 0.00 0.00 53 1011.0
20260502225510 57 221 0.0 0.0 0.00 0.00 0.00 53 1010.9
20260502225104 57 221 0.0 0.0 0.00 0.00 0.00 53 1010.9
20260502224503 57 221 0.0 0.0 0.00 0.00 0.00 48 1010.8
20260502224010 57 221 0.0 0.0 0.00 0.00 0.00 50 1010.8
20260502223604 58 221 0.0 0.0 0.00 0.00 0.00 49 1010.8
20260502223003 58 221 0.0 0.0 0.00 0.00 0.00 49 1010.9
20260502222510 58 221 0.0 0.0 0.00 0.00 0.00 49 1010.8
20260502222104 58 221 0.0 0.0 0.00 0.00 0.00 49 1010.7
20260502221503 58 221 0.0 0.0 0.00 0.00 0.00 47 1010.6
20260502221010 58 221 0.0 0.0 0.00 0.00 0.00 50 1010.6
20260502220604 58 221 0.0 0.0 0.00 0.00 0.00 47 1010.6
20260502220003 58 221 0.0 0.0 0.00 0.00 0.00 46 1010.4
20260502215509 59 221 0.0 0.0 0.00 0.00 0.00 44 1010.5
20260502215102 59 221 0.0 1.7 0.00 0.00 0.00 45 1010.4
20260502214504 59 206 0.0 1.7 0.00 0.00 0.00 41 1010.5
20260502214009 60 186 0.0 0.9 0.00 0.00 0.00 47 1010.4
20260502213604 60 186 0.0 0.9 0.00 0.00 0.00 45 1010.4
20260502213003 60 254 0.0 1.7 0.00 0.00 0.00 44 1010.4
20260502212509 60 343 0.0 1.7 0.00 0.00 0.00 45 1010.3
20260502212104 60 340 0.0 0.9 0.00 0.00 0.00 43 1010.3
20260502211504 61 167 0.0 0.9 0.00 0.00 0.00 45 1010.3
20260502211009 61 167 0.0 0.9 0.00 0.00 0.00 42 1010.3
20260502210604 61 167 0.0 0.9 0.00 0.00 0.00 40 1010.3
20260502210004 61 164 0.0 0.0 0.00 0.00 0.00 42 1010.3
20260502205512 60 164 0.0 0.0 0.00 0.00 0.00 40 1010.3
20260502205105 60 164 0.0 0.0 0.00 0.00 0.00 42 1010.4
20260502204503 60 273 0.0 0.0 0.00 0.00 0.00 41 1010.4
20260502204009 59 347 0.0 0.0 0.00 0.00 0.00 40 1010.4
20260502203603 59 198 0.0 0.0 0.00 0.00 0.00 48 1010.5
20260502203009 59 41 0.0 0.0 0.00 0.00 0.00 43 1010.5
20260502202508 59 3 0.0 0.0 0.00 0.00 0.00 42 1010.5
20260502202102 59 62 0.0 0.0 0.00 0.00 0.00 41 1010.6
20260502201503 59 34 0.0 0.0 0.00 0.00 0.00 39 1010.6
20260502201011 59 251 0.0 0.0 0.00 0.00 0.00 43 1010.6
20260502200604 59 108 0.0 0.0 0.00 0.00 0.00 42 1010.6
20260502200003 59 108 0.0 0.0 0.00 0.00 0.00 42 1010.7
20260502195514 59 347 0.0 0.0 0.00 0.00 0.00 41 1010.9
20260502195103 59 352 0.0 0.9 0.00 0.00 0.00 39 1011.1
20260502194503 59 310 0.0 0.9 0.00 0.00 0.00 39 1011.1
20260502194011 59 25 0.0 0.0 0.00 0.00 0.00 38 1011.2
20260502193606 59 290 0.0 0.0 0.00 0.00 0.00 43 1011.4
20260502193003 59 295 0.0 0.0 0.00 0.00 0.00 38 1011.3
20260502192510 59 259 0.0 0.0 0.00 0.00 0.00 40 1011.4
20260502192105 60 358 0.0 6.1 0.00 0.00 0.00 39 1011.5
20260502191511 60 318 0.0 6.1 0.00 0.00 0.00 38 1011.5
20260502191009 60 14 0.0 0.0 0.00 0.00 0.00 40 1011.5
20260502190603 59 323 0.0 0.0 0.00 0.00 0.00 41 1011.6
20260502190005 58 301 0.0 0.9 0.00 0.00 0.00 44 1011.7
20260502185511 58 136 0.0 1.7 0.00 0.00 0.00 48 1011.7
20260502185103 57 289 0.0 1.7 0.00 0.00 0.00 43 1011.7
20260502184503 57 11 0.0 0.9 0.00 0.00 0.00 45 1011.7
20260502184010 56 41 0.0 0.0 0.00 0.00 0.00 48 1011.7
20260502183604 56 5 0.0 0.9 0.00 0.00 0.00 44 1011.8
20260502183003 56 40 0.0 0.9 0.00 0.00 0.00 47 1011.9
20260502182509 56 304 0.0 0.9 0.00 0.00 0.00 49 1011.8
20260502182104 56 18 0.0 0.0 0.00 0.00 0.00 51 1011.8
20260502181502 56 1 0.0 0.0 0.00 0.00 0.00 49 1011.8
20260502181009 56 347 0.0 1.7 0.00 0.00 0.00 47 1011.8
20260502180603 56 313 0.0 1.7 0.00 0.00 0.00 50 1011.8
20260502164009 55 347 0.0 6.1 0.00 0.00 0.00 50 1012.7
20260502163603 55 340 0.0 6.1 0.00 0.00 0.00 51 1013.0
20260502163006 55 323 0.0 6.1 0.00 0.00 0.00 52 1013.0
20260502162512 55 347 0.0 5.2 0.00 0.00 0.00 53 1012.9
20260502162106 55 20 0.0 2.6 0.00 0.00 0.00 56 1013.0
20260502161503 55 349 0.0 0.9 0.00 0.00 0.00 59 1012.8
20260502161011 55 323 0.0 0.9 0.00 0.00 0.00 56 1013.1
20260502160603 54 279 0.0 7.0 0.00 0.00 0.00 57 1013.1
20260502152103 53 337 0.0 1.7 0.00 0.00 0.00 59 1013.4
20260502151503 53 29 0.0 1.7 0.00 0.00 0.00 59 1013.5
20260502151010 53 294 0.0 0.0 0.00 0.00 0.00 57 1013.3
20260502150602 53 316 0.0 0.9 0.00 0.00 0.00 58 1013.4
20260502130503 53 313 0.0 0.0 0.00 0.00 0.00 69 1012.6
20260502123503 53 299 0.0 0.9 0.00 0.00 0.00 70 1011.9
20260502123024 53 339 0.0 0.0 0.00 0.00 0.00 72 1011.8
20260502122602 53 2 0.0 0.0 0.00 0.00 0.00 74 1011.9
20260502122104 53 1 0.0 0.0 0.00 0.00 0.00 72 1012.0
20260502121513 53 349 0.0 0.0 0.00 0.00 0.00 73 1012.2
20260502121018 53 308 0.0 0.0 0.00 0.00 0.00 74 1012.2
20260502120603 53 304 0.0 0.0 0.00 0.00 0.00 74 1012.2
20260502115603 53 351 0.0 0.0 0.00 0.00 0.00 75 1012.3
20260502115003 53 344 0.0 0.0 0.00 0.00 0.00 74 1012.2
20260502114510 52 352 0.0 0.0 0.00 0.00 0.00 76 1012.2
20260502114103 52 306 0.0 0.0 0.00 0.00 0.00 76 1011.9
20260502113503 52 9 0.0 0.0 0.00 0.00 0.00 80 1011.8
20260502113010 52 349 0.0 0.0 0.00 0.00 0.00 79 1011.9
20260502112603 52 349 0.0 0.0 0.00 0.00 0.00 80 1011.8
20260502112003 52 314 0.0 0.0 0.00 0.00 0.00 81 1011.8
20260502111509 52 311 0.0 0.0 0.00 0.00 0.00 82 1011.9
20260502111103 51 323 0.0 0.0 0.00 0.00 0.00 84 1011.8
20260502110503 51 349 0.0 0.0 0.00 0.00 0.00 87 1011.8
20260502110008 51 347 0.0 0.0 0.00 0.00 0.00 88 1011.7
20260502105603 51 347 0.0 0.0 0.00 0.00 0.00 88 1011.7
20260502105003 51 347 0.0 0.0 0.00 0.00 0.00 89 1011.7
20260502104515 51 3 0.0 0.0 0.00 0.00 0.00 90 1011.4
20260502104105 51 10 0.0 0.0 0.00 0.00 0.00 91 1011.3
20260502103503 51 8 0.0 0.0 0.00 0.00 0.00 92 1011.5
20260502103009 51 26 0.0 0.0 0.00 0.00 0.00 92 1011.5
20260502102604 51 25 0.0 0.0 0.00 0.00 0.00 91 1011.6
20260502102004 51 348 0.0 0.0 0.00 0.00 0.00 92 1011.6
20260502101511 51 348 0.0 0.0 0.00 0.00 0.00 92 1011.7
20260502101104 51 348 0.0 0.0 0.00 0.00 0.00 92 1011.6
20260502100503 51 348 0.0 0.0 0.00 0.00 0.00 92 1011.9
20260502091509 51 348 0.0 0.0 0.00 0.00 0.00 92 1012.3
20260502091106 51 348 0.0 0.0 0.00 0.00 0.00 92 1012.1
20260502090502 51 348 0.0 0.0 0.00 0.00 0.00 91 1012.1
20260502071509 51 348 0.0 0.0 0.00 0.00 0.00 90 1011.0
20260502071103 51 348 0.0 0.0 0.00 0.00 0.00 89 1011.0
20260502070502 51 348 0.0 0.0 0.00 0.00 0.00 89 1010.9
20260502070009 51 348 0.0 0.0 0.00 0.00 0.00 90 1010.9
20260502065603 51 348 0.0 0.0 0.00 0.00 0.00 89 1010.9
20260502065002 51 348 0.0 0.0 0.00 0.00 0.00 90 1011.0
20260502064516 51 348 0.0 0.9 0.00 0.00 0.00 90 1011.1
20260502064104 51 348 0.0 0.9 0.00 0.00 0.00 89 1011.0
20260502063503 51 51 0.0 2.6 0.00 0.00 0.00 90 1011.2
20260502063011 51 8 0.0 2.6 0.00 0.00 0.00 90 1011.5
20260502062603 50 304 0.0 0.0 0.00 0.00 0.00 90 1011.4
20260502062002 50 232 0.0 0.0 0.00 0.00 0.00 91 1011.2
20260502061509 50 231 0.0 0.0 0.00 0.00 0.00 91 1011.1
20260502061102 50 231 0.0 0.0 0.00 0.00 0.00 90 1011.0
20260502060503 50 231 0.0 0.0 0.00 0.00 0.00 90 1011.1
20260502060009 50 231 0.0 0.0 0.00 0.00 0.00 90 1011.1
20260502055604 50 231 0.0 0.0 0.00 0.00 0.00 90 1011.1
20260502055003 50 231 0.0 0.0 0.00 0.00 0.00 90 1011.2
20260502054508 50 231 0.0 0.0 0.00 0.00 0.00 90 1011.2
20260502054102 50 231 0.0 0.0 0.00 0.00 0.00 90 1011.2
20260502053503 50 231 0.0 0.0 0.00 0.00 0.00 90 1011.2
20260502053012 50 231 0.0 0.0 0.00 0.00 0.00 89 1011.2
20260502052605 50 231 0.0 0.0 0.00 0.00 0.00 89 1011.1
20260502052003 50 231 0.0 0.0 0.00 0.00 0.00 89 1011.2
20260502051508 50 231 0.0 0.0 0.00 0.00 0.00 89 1011.2
20260502051102 50 231 0.0 0.0 0.00 0.00 0.00 89 1011.3
20260502050504 50 231 0.0 0.0 0.00 0.00 0.00 89 1011.4
20260502050011 50 231 0.0 0.0 0.00 0.00 0.00 89 1011.4
20260502045604 50 231 0.0 0.0 0.00 0.00 0.00 89 1011.5
20260502045004 50 231 0.0 0.0 0.00 0.00 0.00 88 1011.4
20260502044509 50 231 0.0 0.0 0.00 0.00 0.00 88 1011.5
20260502044103 50 231 0.0 0.0 0.00 0.00 0.00 88 1011.6
20260502043502 51 231 0.0 0.0 0.00 0.00 0.00 88 1011.5
20260502043009 51 231 0.0 0.0 0.00 0.00 0.00 88 1011.5
20260502042603 51 231 0.0 0.0 0.00 0.00 0.00 87 1011.5
20260502042003 51 232 0.0 0.0 0.00 0.00 0.00 87 1011.5
20260502041516 51 231 0.0 0.0 0.00 0.00 0.00 87 1011.6
20260502041104 51 231 0.0 0.0 0.00 0.00 0.00 87 1011.5
20260502040512 51 231 0.0 0.0 0.00 0.00 0.00 86 1011.5
20260502040105 51 231 0.0 0.0 0.00 0.00 0.00 86 1011.7
20260502035502 51 231 0.0 0.0 0.00 0.00 0.00 86 1011.6
20260502035009 52 231 0.0 0.0 0.00 0.00 0.00 86 1011.8
20260502034603 52 231 0.0 0.0 0.00 0.00 0.00 85 1011.7
20260502034003 52 231 0.0 0.0 0.00 0.00 0.00 85 1011.7
20260502033508 52 231 0.0 0.0 0.00 0.00 0.00 85 1011.7
20260502033105 52 231 0.0 0.0 0.00 0.00 0.00 85 1011.8
20260502032504 52 231 0.0 0.0 0.00 0.00 0.00 84 1012.0
20260502032008 52 231 0.0 0.0 0.00 0.00 0.00 84 1011.9
20260502031603 53 231 0.0 0.0 0.00 0.00 0.00 84 1012.0
20260502031003 53 231 0.0 0.0 0.00 0.00 0.00 83 1012.0
20260502030509 53 231 0.0 0.0 0.00 0.00 0.00 83 1012.0
20260502025503 53 231 0.0 0.0 0.00 0.00 0.00 82 1011.9
20260502025008 53 231 0.0 0.0 0.00 0.00 0.00 82 1011.8
20260502024608 53 231 0.0 0.0 0.00 0.00 0.00 82 1011.9
20260502024003 53 231 0.0 0.0 0.00 0.00 0.00 82 1011.9
20260502023508 53 231 0.0 0.0 0.00 0.00 0.00 82 1012.0
20260502023103 53 231 0.0 0.0 0.00 0.00 0.00 81 1011.9
20260502022503 54 231 0.0 0.0 0.00 0.00 0.00 81 1011.9
20260502022015 54 231 0.0 0.0 0.00 0.00 0.00 80 1011.9
20260502021603 54 231 0.0 0.0 0.00 0.00 0.00 80 1011.9
20260502021003 54 231 0.0 0.0 0.00 0.00 0.00 81 1011.8
20260502020509 54 231 0.0 0.0 0.00 0.00 0.00 80 1011.9